Powrót do katalogu

ONEWEB-0219

AktywnyŁącznośćPO
NORAD 48223·PAYLOAD·🇬🇧 United Kingdom

Wystrzelony Apr 25, 2021 z Vostochny Cosmodrome

Loading…

Następne Przeloty (najbliższe 24 godziny)

TLE

ŚwieżeSource: CelesTrak SupGP

Epoka: Sep 14, 2026, 23:19 UTC

1 48223C 21031P   26257.97205278  .00002985  00000+0  80627-2 0  2573
2 48223  87.8898 271.7966 0001724  97.6647 289.0971 13.14498115    14

Śledź ONEWEB-0219 w czasie rzeczywistym z AllMySat

Download on the App Store